Theta_e
305 306 306 306 306 305 305 305 305 304 304 304 305 305 305 306 306 307 306 302 304 305 305 310 311 313 312 313 311 308 313 313 312 312 313 313 314 313 313 314 314 316 321 330 333
305 305 306 306 305 305 305 304 304 303 304 304 304 305 305 306 307 306 303 301 302 307 309 309 310 313 315 314 314 314 314 313 311 312 312 313 313 314 314 315 315 315 323 333 335
304 304 305 305 304 304 304 304 303 303 303 304 304 305 305 306 304 301 306 306 307 306 309 309 309 313 313 314 315 315 314 312 312 312 311 313 314 314 314 315 316 316 316 325 334
304 304 304 304 304 304 303 302 302 302 303 302 304 305 306 306 300 307 306 305 305 308 311 312 308 308 309 310 312 313 314 314 313 313 314 314 315 315 315 316 316 316 315 314 321
304 304 303 303 303 303 302 301 300 299 301 302 304 306 306 306 305 301 306 305 308 311 314 315 310 308 309 307 308 312 311 312 313 314 314 314 315 315 315 315 315 314 314 315 315
304 304 303 303 303 302 302 298 295 299 303 304 305 306 306 306 303 302 303 304 305 313 314 314 314 311 311 309 309 310 311 311 312 313 313 314 315 315 316 315 314 314 315 315 319
304 303 303 302 302 299 298 295 299 303 305 306 307 306 307 307 304 304 303 305 306 308 312 311 311 307 307 307 308 310 312 313 313 313 314 316 317 317 316 317 316 315 314 315 319
302 302 302 300 298 297 296 298 302 304 308 308 309 306 308 306 306 307 307 308 309 306 307 307 307 307 307 307 308 311 313 314 315 314 314 315 313 315 314 314 315 315 314 313 318
301 301 301 298 297 296 297 303 305 308 308 308 307 307 308 307 310 310 310 307 306 307 306 306 307 308 306 307 309 311 313 315 315 314 315 314 317 316 313 313 314 315 315 315 318
300 300 300 299 297 296 301 304 308 309 308 309 307 308 307 310 310 309 307 306 306 307 310 310 309 308 306 309 310 311 313 315 315 315 314 315 315 314 314 315 316 316 316 316 316
299 298 298 297 296 297 302 301 299 302 299 302 305 309 304 305 306 307 307 307 312 311 309 311 311 310 309 309 309 309 310 310 310 311 312 313 315 316 316 315 315 316 315 316 315
297 296 297 296 296 299 299 298 297 296 300 301 301 302 303 303 305 306 307 307 313 313 315 315 314 312 310 309 308 309 310 311 310 310 310 311 312 315 315 315 315 317 317 316 316
297 296 297 295 297 296 297 295 295 296 301 303 304 304 305 305 306 306 305 306 312 312 315 313 313 314 313 315 315 315 315 315 314 313 313 312 313 313 313 315 315 315 315 316 315
296 295 296 295 295 295 298 295 295 297 305 301 307 308 306 306 307 305 305 308 313 310 314 315 314 315 316 317 317 318 314 314 315 315 316 313 317 315 315 316 316 316 317 317 317
294 295 297 296 296 295 295 295 297 300 296 299 310 307 306 308 308 307 305 308 312 314 315 312 317 318 318 315 316 316 316 317 317 319 319 318 318 316 315 316 316 317 317 318 317
294 296 296 296 296 295 295 295 301 297 295 300 307 305 305 309 308 305 307 305 309 314 316 315 313 316 316 315 315 316 317 318 318 319 322 318 318 318 316 316 317 318 319 319 318
294 295 296 295 295 295 295 298 295 294 298 303 304 301 303 305 310 307 308 307 308 310 309 306 308 313 314 315 315 315 316 320 321 321 320 317 319 319 317 316 321 321 321 321 319
293 294 294 295 295 295 297 295 292 296 299 301 300 300 306 305 306 307 307 309 305 304 306 307 310 309 313 312 312 316 316 320 322 322 322 318 319 319 322 320 320 320 320 321 322
294 294 295 297 296 297 294 294 293 301 298 299 298 305 305 305 305 305 308 307 306 305 308 307 309 307 314 314 312 318 319 318 325 320 323 320 320 323 322 321 321 322 323 325 325
294 293 295 296 297 295 293 295 296 297 298 299 299 304 305 299 304 303 306 311 313 304 305 308 310 309 316 316 316 318 318 325 323 322 324 321 323 328 324 323 321 322 321 323 326
294 293 296 296 297 294 293 295 296 296 298 298 300 299 299 295 299 300 306 310 309 313 305 307 312 311 317 317 318 318 318 320 320 321 324 327 330 323 323 321 321 320 317 316 319
291 291 294 295 295 293 296 297 297 297 296 296 299 299 300 300 304 305 306 308 307 309 315 314 316 314 313 312 314 316 318 320 321 323 325 325 325 323 321 318 318 316 314 313 313
292 292 293 293 292 295 296 297 298 298 298 298 299 300 300 300 301 303 307 307 308 307 312 313 317 319 316 316 316 316 318 319 319 318 322 326 326 323 321 317 314 312 310 309 310
290 290 291 294 291 294 293 295 296 299 299 300 300 300 301 301 301 301 305 306 306 307 309 310 311 315 314 311 313 315 313 314 317 318 318 323 324 324 319 321 314 311 308 306 305
290 291 292 293 296 295 295 296 297 298 298 298 301 299 300 303 302 303 302 304 307 306 308 310 310 312 312 312 312 310 311 309 310 316 319 318 318 319 320 320 319 312 307 305 303
293 293 293 295 294 295 294 294 296 296 295 296 299 298 297 301 301 303 303 304 308 308 309 311 312 312 310 312 308 308 306 308 310 310 314 318 319 317 318 321 317 312 308 305 302
293 292 293 294 294 294 294 294 294 295 296 297 297 296 297 301 302 302 302 303 305 308 308 309 311 311 309 309 307 306 307 306 310 313 317 319 318 320 322 321 316 312 307 304 301
Wind_Speed
13 14 14 15 17 18 18 19 21 22 21 20 20 20 22 26 29 21 8 8 3 8 11 9 5 7 6 4 4 4 6 10 9 9 7 3 4 3 1 4 2 3 6 5 5
13 14 14 15 16 18 20 21 22 23 23 22 19 19 21 24 27 15 8 7 7 7 7 8 7 8 4 5 4 5 6 10 7 9 7 6 5 6 4 6 10 10 4 2 8
13 14 15 15 17 20 21 22 24 23 23 22 19 19 19 21 6 4 5 4 5 9 4 5 6 5 5 3 7 5 12 5 5 8 5 6 13 6 11 12 16 13 11 6 8
12 13 15 17 19 21 23 26 25 25 23 20 18 15 17 8 6 2 5 3 1 10 7 5 3 5 5 8 5 6 8 9 7 11 8 11 9 15 13 14 20 17 16 14 12
13 14 15 17 20 23 26 28 28 26 23 20 15 12 7 3 10 5 6 5 0 9 7 6 5 4 5 5 3 8 8 8 10 10 14 15 19 22 19 14 18 13 17 18 14
13 15 17 18 22 25 28 30 26 25 24 23 14 4 2 6 4 5 4 5 5 8 7 7 5 6 4 5 5 4 6 7 9 15 14 18 19 9 14 16 14 14 18 18 15
13 16 18 21 25 28 31 30 24 26 26 16 10 9 6 16 5 6 11 12 9 10 4 8 6 5 4 4 3 5 8 10 10 10 10 9 10 13 21 20 16 18 17 17 15
15 16 18 24 28 30 34 27 26 20 11 8 10 10 7 8 11 12 10 11 14 13 10 6 7 3 3 4 4 4 4 5 2 3 8 10 18 13 12 14 17 17 15 14 16
13 15 19 23 27 30 27 28 14 3 7 9 7 4 9 5 4 3 6 3 4 10 9 2 4 4 3 2 4 2 6 6 9 7 8 9 11 10 3 6 13 12 11 12 13
12 16 19 22 26 24 24 11 3 3 3 3 2 4 6 1 2 5 3 6 2 5 3 4 1 2 1 6 7 4 5 5 5 4 6 12 15 16 11 11 12 12 12 13 13
14 16 19 21 25 20 19 3 6 3 5 6 4 6 11 12 12 4 1 1 3 2 5 4 7 12 11 9 12 12 13 17 15 12 17 22 21 18 16 13 11 13 14 14 14
13 16 19 22 13 15 20 6 3 4 11 9 16 13 23 21 8 8 2 4 5 6 4 2 10 11 6 6 9 11 14 17 12 13 13 19 23 18 16 18 16 17 17 16 14
12 16 19 24 5 12 11 8 13 1 5 8 5 4 3 10 6 6 5 3 3 6 8 6 2 5 7 6 6 9 11 13 12 15 18 20 24 23 20 18 14 16 16 16 14
12 13 18 19 3 14 1 19 19 4 3 5 1 1 3 4 3 5 7 4 4 10 6 6 4 6 6 5 4 3 5 10 12 9 5 1 8 11 12 15 14 16 13 15 15
11 11 13 14 7 3 12 22 14 5 5 5 2 3 3 2 4 1 5 2 6 5 5 3 3 4 8 7 7 4 4 7 10 11 11 11 8 3 7 7 10 11 14 14 12
10 10 11 8 7 8 19 19 2 2 5 5 3 6 7 2 1 3 2 1 0 4 3 5 2 3 5 4 6 2 5 11 8 6 6 14 13 3 5 3 5 5 8 9 10
9 9 9 8 5 15 15 3 2 2 6 7 5 8 8 4 3 3 4 4 4 3 3 3 5 4 4 5 4 5 4 3 2 4 5 3 9 14 13 8 6 10 12 13 11
8 10 8 6 10 8 5 2 3 3 3 6 7 10 4 9 4 5 2 4 5 2 1 2 1 5 4 10 3 7 6 3 3 3 3 0 6 2 8 8 9 9 10 11 11
8 5 7 11 6 7 3 3 1 3 5 10 11 3 3 6 5 9 2 3 4 10 6 5 3 2 3 3 7 4 5 1 3 5 5 5 6 9 12 13 14 14 14 15 12
5 3 9 5 6 6 4 2 1 4 6 5 3 7 4 9 7 10 3 2 6 5 3 2 3 0 2 4 4 1 5 2 3 3 5 6 6 4 12 14 14 16 16 15 11
4 3 7 6 7 5 3 1 3 5 3 4 3 5 5 7 7 6 5 3 12 9 3 1 3 1 5 5 8 4 2 2 2 4 3 4 1 4 8 9 10 11 12 14 16
3 3 6 9 3 2 1 1 4 5 4 5 4 6 7 8 6 6 4 4 12 10 2 2 1 5 8 3 7 4 2 4 3 2 4 3 3 2 11 12 11 11 12 12 13
2 1 4 3 3 2 3 3 3 3 5 2 4 3 6 5 4 6 5 6 9 13 7 3 1 2 7 4 4 3 3 3 3 2 5 3 1 4 10 13 13 13 12 12 13
2 2 2 3 2 3 1 2 4 1 2 3 6 7 12 12 10 8 4 3 6 11 19 5 4 5 2 4 3 2 4 3 5 3 5 6 6 3 8 6 10 11 10 13 14
2 1 1 1 2 1 3 2 3 4 2 2 1 6 10 5 7 12 12 9 5 2 5 2 3 7 6 4 4 2 6 8 8 9 5 5 6 9 6 8 4 6 9 13 14
2 2 2 0 1 0 2 1 4 3 3 5 3 11 15 6 9 9 9 5 5 4 2 3 3 5 3 6 1 4 9 5 6 8 13 15 16 9 11 9 13 7 9 11 12
3 3 2 1 1 0 1 1 3 9 5 6 11 16 12 10 8 12 14 13 11 5 2 3 1 2 1 3 7 4 5 6 5 6 9 9 7 2 6 13 15 16 13 10 12
Wind_Direction
348 344 340 339 343 341 339 337 334 330 328 325 324 324 323 322 322 315 249 247 191 232 184 155 153 143 145 150 132 144 233 239 220 204 231 247 236 206 241 265 309 259 296 301 272
348 347 342 337 337 332 332 330 328 325 321 320 323 322 323 330 316 275 288 221 224 158 183 182 167 154 157 156 171 200 226 238 207 220 235 232 230 267 266 291 289 293 254 316 181
347 346 343 336 331 328 328 326 324 322 318 317 319 321 324 333 305 254 122 90 158 185 161 181 149 155 172 167 179 191 238 216 208 237 224 240 264 261 267 275 272 284 290 276 204
344 341 339 336 330 327 325 324 323 318 317 313 315 323 324 333 302 173 166 50 255 170 153 160 162 162 182 206 207 222 220 228 233 239 239 241 261 266 263 262 272 270 276 281 261
340 337 336 333 329 326 324 325 323 317 314 312 310 320 340 326 252 227 223 256 37 176 174 167 167 162 202 195 206 234 254 244 237 244 242 250 249 259 268 255 267 270 275 270 260
336 335 333 333 327 325 324 326 326 318 314 305 290 270 191 275 254 248 237 274 220 198 187 170 201 212 229 214 208 201 220 261 250 251 254 250 251 234 261 260 263 264 268 269 257
335 332 332 330 327 327 325 327 325 318 311 301 255 189 221 250 247 285 274 281 224 206 199 205 203 187 188 260 228 256 273 282 248 233 240 240 249 233 244 260 257 258 261 268 264
338 331 333 330 326 326 326 327 320 314 323 310 177 169 244 257 301 281 267 270 229 202 217 243 201 204 210 287 303 279 261 271 283 244 246 204 259 266 245 239 245 251 260 270 270
351 340 338 330 328 330 331 327 322 15 46 83 124 197 267 301 272 334 232 245 184 205 230 280 172 211 180 221 280 236 262 258 295 258 272 209 280 270 231 236 256 260 266 276 279
346 345 338 333 335 341 337 343 54 65 352 353 125 241 262 338 323 307 274 245 194 142 143 162 149 222 219 198 246 234 244 253 257 321 325 287 273 272 285 288 283 289 287 284 280
344 343 342 342 341 357 355 30 12 348 10 244 245 275 310 305 293 261 77 244 130 133 181 176 207 222 218 218 243 271 275 274 272 279 286 279 280 282 287 277 271 280 279 278 272
342 345 345 346 355 13 51 71 73 274 305 248 249 253 262 270 288 298 296 222 177 182 139 176 233 236 219 234 243 258 271 277 280 262 265 272 274 276 268 273 266 272 275 272 262
345 345 346 349 2 22 71 64 349 302 259 299 224 230 274 159 219 261 205 202 195 179 189 206 191 92 174 221 243 254 254 272 274 290 277 279 277 264 254 256 264 262 256 263 248
340 348 349 357 46 352 14 339 340 191 314 283 283 185 112 156 254 226 194 205 189 226 200 236 231 219 209 235 190 284 239 261 277 285 273 342 288 296 280 269 261 258 251 251 247
350 351 355 17 342 5 314 330 337 153 336 344 56 153 149 203 276 154 179 213 199 176 163 230 202 182 213 224 171 246 304 277 292 270 277 266 273 318 249 260 247 242 242 245 255
355 349 351 350 337 319 323 326 120 28 258 343 33 357 349 235 240 125 183 180 223 154 241 250 197 213 208 200 191 261 297 284 253 275 264 250 225 285 246 246 328 331 320 312 308
341 344 344 332 312 318 324 335 37 188 359 353 346 345 332 301 305 180 165 180 187 185 232 263 235 231 193 230 218 224 269 285 215 215 259 289 214 253 297 323 349 332 324 319 314
343 337 355 32 340 332 327 61 183 43 338 5 333 313 328 17 354 332 214 222 213 144 157 275 297 172 181 212 165 194 196 232 278 245 312 329 238 185 358 10 17 360 332 318 321
347 21 46 358 10 355 63 89 3 35 340 328 326 340 338 5 352 354 243 253 230 182 206 184 258 165 188 160 189 150 206 241 280 253 275 232 235 225 7 21 13 5 3 350 333
9 52 14 38 26 28 68 80 18 24 331 338 322 13 336 340 339 356 284 8 329 220 321 256 252 142 128 122 56 145 122 202 172 261 246 253 251 328 9 2 11 9 5 2 2
49 68 15 29 4 52 81 325 299 291 23 6 330 323 321 316 309 302 289 33 18 332 252 245 224 128 144 206 182 160 185 213 289 253 280 314 150 39 48 32 33 19 12 11 15
82 73 337 343 53 66 105 249 313 278 299 271 268 253 244 280 285 279 266 334 20 330 312 14 326 243 239 225 196 184 179 167 233 274 255 309 282 108 43 47 54 43 25 25 33
71 46 5 9 88 49 328 293 268 294 283 286 277 285 321 290 294 290 284 349 23 351 6 332 327 251 158 110 88 107 91 10 316 233 243 264 128 83 55 52 53 51 43 34 36
83 75 345 44 149 133 210 273 309 21 275 317 276 275 285 267 247 266 273 313 4 327 316 338 204 254 304 97 129 196 283 192 169 264 348 286 334 10 7 31 54 52 51 54 47
64 108 96 114 153 279 192 257 305 5 281 331 11 6 331 287 250 236 258 285 241 341 280 283 255 248 261 155 162 214 257 282 249 240 227 264 267 259 238 224 57 68 70 65 51
121 126 124 340 282 199 340 282 325 355 304 306 255 328 322 293 297 306 322 306 276 42 278 262 206 224 187 133 212 263 270 293 267 252 250 259 278 288 272 145 127 110 79 68 62
110 102 89 315 215 218 246 299 316 334 280 272 314 313 306 297 324 288 286 277 268 292 297 269 276 223 263 347 317 258 165 323 272 270 277 269 279 269 181 165 157 148 115 92 77